Content
SEND FEEDBACK

Daily
Averages
Monthly
Summary
United States of America

WRIGHTSBORO, NORTH CAROLINA


Home > North America > United States > North Carolina
Elevation: 30 feet     Latitude: 34 18N     Longitude: 077 54W

WEATHER
 
SELECT A DAY
Number of Records: 208,938;   Date Range: 1/1/95 - 8/12/14
 
SHARE

PRINT THIS DATA

[ ← Previous Day ]
WEATHER ALMANAC - JULY 16, 2013
[ Next Day → ]
[ °C ]   °F
Weather ElementAverageHighLow
Temperature81.1 °F90 °F (2:53 pm)71.1 °F (4:53 am)
Dewpoint71.3 °F73 °F (7:53 am)69.1 °F (2:53 pm)
Humidity73.9 %97 % (6:53 am)50 % (2:53 pm)
Barometer30.24 in30.29 in (8:53 am)30.18 in (6:53 pm)
Wind Speed2.9 mph8.1 mph (3:53 pm)
Weather ElementAverage
Visibility9.9 mi
Wind DirectionE (92.6 °)

Weather ElementTotal
Precipitation0.03 in
Cooling Degree Days15.6 (Base 65)
Growing Degree Days30.6 (Base 50)
Averaged from 23 records on July 16, 2013
WEATHER CONDITIONS BREAKOUT
WIND DIRECTION BREAKOUT
WEATHER BY HOUR - JULY 16, 2013
[ °C ]   °F
Local TimeTemperatureDewpointHumidityBarometerVisibilityWind DirectionWind SpeedGust SpeedPrecipitationEventsConditions
1:53 AM73.0 °F71.1 °F93 %30.25 in10.0 miCalmClear
2:53 AM73.0 °F71.1 °F93 %30.25 in10.0 miCalm0.01 inClear
3:53 AM73.0 °F71.1 °F93 %30.25 in10.0 miCalmClear
4:53 AM71.1 °F70.0 °F96 %30.25 in10.0 miCalm0.01 inClear
5:53 AM71.1 °F70.0 °F96 %30.26 in8.0 miCalmClear
6:53 AM72.0 °F71.1 °F97 %30.27 in10.0 miCalmClear
7:53 AM75.9 °F73.0 °F91 %30.28 in10.0 miCalmClear
8:53 AM80.1 °F73.0 °F79 %30.29 in10.0 miCalmClear
9:53 AM82.9 °F72.0 °F69 %30.27 in10.0 miNNW (330°)3.5 mph0.01 inClear
10:53 AM84.9 °F71.1 °F63 %30.27 in10.0 miCalmClear
11:53 AM88.0 °F70.0 °F55 %30.26 in10.0 miVariable4.6 mphClear
12:53 PM88.0 °F70.0 °F55 %30.25 in10.0 miEast (100°)4.6 mphClear
1:53 PM89.1 °F70.0 °F53 %30.23 in10.0 miVariable3.5 mphScattered Clouds
2:53 PM90.0 °F69.1 °F50 %30.22 in10.0 miCalmMostly Cloudy
3:53 PM90.0 °F72.0 °F55 %30.20 in10.0 miSSE (160°)8.1 mphMostly Cloudy
4:53 PM89.1 °F72.0 °F57 %30.20 in10.0 miSSE (150°)6.9 mphPartly Cloudy
5:53 PM87.1 °F71.1 °F59 %30.19 in10.0 miSSE (160°)5.8 mphClear
6:53 PM86.0 °F70.0 °F59 %30.18 in10.0 miSouth (170°)4.6 mphClear
7:53 PM82.9 °F72.0 °F69 %30.19 in10.0 miSouth (190°)5.8 mphClear
8:53 PM81.0 °F72.0 °F74 %30.20 in10.0 miSSW (210°)5.8 mphClear
9:53 PM80.1 °F73.0 °F79 %30.22 in10.0 miSW (220°)5.8 mphClear
10:53 PM79.0 °F73.0 °F82 %30.22 in10.0 miSW (220°)4.6 mphClear
11:53 PM79.0 °F73.0 °F82 %30.21 in10.0 miSW (220°)3.5 mphClear
Hourly data recorded from KILM, located miles away from Wrightsboro, North Carolina







STORIES FROM OUR PARTNERS